Content
SEND FEEDBACK

Daily
Averages
Monthly
Summary
United States of America

STATEN ISLAND, NEW YORK


Home > North America > United States > New York
Elevation: 152 feet     Latitude: 40 35N     Longitude: 074 09W

WEATHER
 
SELECT A DAY
Number of Records: 189,950;   Date Range: 1/1/95 - 9/21/14
 
SHARE

PRINT THIS DATA

[ ← Previous Day ]
WEATHER ALMANAC - APRIL 30, 2013
[ Next Day → ]
[ °C ]   °F
Weather ElementAverageHighLow
Temperature56.6 °F64 °F (1:51 pm)51.1 °F (2:51 am)
Dewpoint38.1 °F48.9 °F (2:51 am)19.9 °F (3:51 pm)
Humidity56.7 %92 % (2:51 am)20 % (3:51 pm)
Barometer30.27 in30.34 in (9:51 pm)30.21 in (2:51 am)
Wind Speed6.3 mph13.8 mph (12:51 pm)
Wind Gust20.7 mph (3:51 pm)
Weather ElementAverage
Visibility9.7 mi
Wind DirectionENE (82.9 °)

Weather ElementTotal
Precipitation---
Heating Degree Days7.5 (Base 65)
Growing Degree Days7.6 (Base 50)
Averaged from 28 records on April 30, 2013
WEATHER CONDITIONS BREAKOUT
WIND DIRECTION BREAKOUT
WEATHER BY HOUR - APRIL 30, 2013
[ °C ]   °F
Local TimeTemperatureDewpointHumidityBarometerVisibilityWind DirectionWind SpeedGust SpeedPrecipitationEventsConditions
1:46 AM53.6 °F46.4 °F77 %30.22 in10.0 miCalmOvercast
1:51 AM53.1 °F48.0 °F83 %30.22 in10.0 miSE (130°)5.8 mphOvercast
2:01 AM51.8 °F48.2 °F88 %30.22 in8.0 miESE (120°)4.6 mph0.00 inRainLight Rain
2:10 AM51.8 °F48.2 °F88 %30.22 in6.0 miEast (100°)4.6 mph0.00 inRainLight Rain
2:51 AM51.1 °F48.9 °F92 %30.21 in7.0 miNE (50°)3.5 mph0.00 inLight Drizzle
3:07 AM51.8 °F48.2 °F88 %30.21 in10.0 miENE (60°)3.5 mph0.00 inOvercast
3:51 AM52.0 °F48.9 °F89 %30.22 in10.0 miENE (60°)4.6 mph0.00 inOvercast
4:07 AM51.8 °F48.2 °F88 %30.22 in10.0 miNE (50°)4.6 mphOvercast
4:51 AM53.1 °F48.9 °F86 %30.22 in10.0 miCalmOvercast
5:51 AM53.1 °F48.0 °F83 %30.24 in10.0 miENE (60°)3.5 mphOvercast
6:51 AM54.0 °F48.0 °F80 %30.25 in10.0 miNE (40°)5.8 mphOvercast
7:51 AM55.0 °F46.9 °F74 %30.27 in10.0 miNE (40°)5.8 mphOvercast
8:51 AM55.0 °F44.1 °F67 %30.29 in10.0 miNNE (20°)6.9 mphMostly Cloudy
9:51 AM57.9 °F44.1 °F60 %30.30 in10.0 miNNE (30°)8.1 mphOvercast
10:51 AM60.1 °F44.1 °F55 %30.30 in10.0 miVariable4.6 mphMostly Cloudy
11:51 AM63.0 °F39.0 °F41 %30.29 in10.0 miSE (130°)10.4 mph19.6 mphMostly Cloudy
12:51 PM63.0 °F37.9 °F40 %30.29 in10.0 miSE (140°)13.8 mph19.6 mphMostly Cloudy
1:51 PM64.0 °F30.9 °F29 %30.29 in10.0 miESE (110°)9.2 mph19.6 mphMostly Cloudy
2:51 PM63.0 °F23.0 °F22 %30.30 in10.0 miSE (130°)13.8 mph18.4 mphScattered Clouds
3:51 PM62.1 °F19.9 °F20 %30.30 in10.0 miSE (130°)12.7 mph20.7 mphMostly Cloudy
4:51 PM63.0 °F21.9 °F21 %30.31 in10.0 miSE (130°)11.5 mph18.4 mphScattered Clouds
5:51 PM61.0 °F23.0 °F23 %30.32 in10.0 miSE (140°)9.2 mphScattered Clouds
6:51 PM60.1 °F21.9 °F23 %30.32 in10.0 miSE (140°)11.5 mphScattered Clouds
7:51 PM57.9 °F25.0 °F28 %30.32 in10.0 miSE (140°)6.9 mphScattered Clouds
8:51 PM57.0 °F26.1 °F30 %30.33 in10.0 miSE (130°)4.6 mphScattered Clouds
9:51 PM55.9 °F28.0 °F34 %30.34 in10.0 miSE (130°)3.5 mphScattered Clouds
10:51 PM55.0 °F28.9 °F37 %30.33 in10.0 miESE (110°)3.5 mphPartly Cloudy
11:51 PM54.0 °F30.9 °F41 %30.33 in10.0 miCalmClear
Hourly data recorded from KEWR, located miles away from Staten Island, New York







STORIES FROM OUR PARTNERS